User: anonymous   Login
Location: Ay?beleni
(36.6500°N, 30.3000°E)
Time: 13:54:02
(UTC+00:00)
Language:

In-Cosmos 22 Rocket - Orbit

View from above orbital plane
View from above orbital plane
View from above satellite
View from above satellite

Ground track
Ground track

The orbit data is extracted from the following two-line orbital elements,

1 12646U 81075B   21163.09696676  .00000061  00000-0  23695-4 0  9998
2 12646  81.2265 277.9252 0068279 151.7223  20.7497 14.15914496 57849
Epoch (UTC): 12 June 2021 02:19:37
Eccentricity: 0.0068279
inclination: 81.2265°
perigee height: 790 km
apogee height: 888 km
right ascension of ascending node: 277.9252°
argument of perigee: 151.7223°
revolutions per day: 14.15914496
mean anomaly at epoch: 20.7497°
orbit number at epoch: 5784

The dashed part of the orbit path shows where the satellite is in the earth's shadow,  

DLR